EW4582 Weather Reports


time (UTC)temp
C
wind
direction
speed
KPH
gust
KPH
rain 1hr
cm
rain 24hr
cm
rain mn
cm
humidity
%
barometer
mb
20260507041256 12 39 0.0 0.0 0.00 0.03 0.03 93 1021.5
20260507040753 12 13 0.0 0.0 0.00 0.03 0.03 92 1021.2
20260507040249 12 22 0.0 0.0 0.00 0.03 0.03 92 1021.2
20260507035745 12 33 0.0 0.0 0.00 0.03 0.03 92 1021.2
20260507035241 12 32 0.0 0.0 0.00 0.03 0.03 92 1021.5
20260507034739 12 42 0.0 0.0 0.00 0.03 0.03 92 1021.2
20260507034235 12 64 0.0 1.6 0.00 0.03 0.03 92 1021.2
20260507033734 12 41 0.0 0.0 0.00 0.03 0.03 92 1021.2
20260507033231 12 49 0.0 0.0 0.00 0.03 0.03 92 1021.2
20260507032728 12 82 0.0 0.0 0.00 0.03 0.03 92 1021.2
20260507032224 12 33 0.0 0.0 0.00 0.03 0.03 91 1021.2
20260507031721 12 49 0.0 0.0 0.00 0.03 0.03 91 1020.8
20260507031217 12 66 1.6 3.2 0.00 0.03 0.03 91 1021.2
20260507030714 12 26 0.0 1.6 0.00 0.03 0.03 91 1020.8
20260507030212 12 27 0.0 0.0 0.00 0.03 0.03 91 1020.8
20260507025709 13 127 0.0 1.6 0.00 0.03 0.03 91 1020.8
20260507025206 13 119 1.6 1.6 0.00 0.03 0.03 91 1020.8
20260507024704 13 0 1.6 3.2 0.00 0.03 0.03 91 1020.8
20260507024201 13 76 0.0 0.0 0.00 0.03 0.03 90 1020.8
20260507023656 13 74 0.0 0.0 0.00 0.03 0.03 90 1021.2
20260507023154 13 43 0.0 1.6 0.00 0.03 0.03 90 1020.8
20260507022651 13 17 0.0 0.0 0.00 0.03 0.03 90 1020.8
20260507022146 13 55 0.0 0.0 0.00 0.03 0.03 89 1020.8
20260507021643 13 45 0.0 0.0 0.00 0.03 0.03 89 1020.8
20260507021138 13 59 0.0 0.0 0.00 0.03 0.03 89 1020.8
20260507020637 13 23 0.0 0.0 0.00 0.03 0.03 88 1020.8
20260507020133 13 64 0.0 0.0 0.00 0.03 0.03 88 1020.8
20260507015631 13 1 0.0 1.6 0.00 0.03 0.03 88 1020.8
20260507015128 13 232 0.0 1.6 0.00 0.03 0.03 87 1020.8
20260507014625 14 359 0.0 0.0 0.00 0.03 0.03 87 1020.8
20260507014121 14 28 1.6 3.2 0.00 0.03 0.03 87 1020.8
20260507013618 14 44 0.0 0.0 0.00 0.03 0.03 87 1020.8
20260507013115 14 359 0.0 0.0 0.00 0.03 0.03 86 1021.2
20260507012612 14 52 0.0 0.0 0.00 0.03 0.03 85 1020.8
20260507012107 14 110 1.6 1.6 0.00 0.03 0.03 85 1020.8
20260507011606 14 34 0.0 0.0 0.00 0.03 0.03 86 1020.8
20260507011102 15 331 3.2 3.2 0.00 0.03 0.03 85 1020.8
20260507010556 15 46 0.0 0.0 0.00 0.03 0.03 84 1020.8
20260507010053 15 16 4.8 4.8 0.00 0.03 0.03 84 1020.8
20260507005550 15 19 3.2 3.2 0.00 0.03 0.03 83 1020.8
20260507005046 15 341 0.0 0.0 0.00 0.03 0.03 82 1020.8
20260507004543 15 35 1.6 1.6 0.00 0.03 0.03 83 1020.5
20260507004041 15 351 1.6 1.6 0.00 0.03 0.03 83 1020.8
20260507003536 15 34 1.6 1.6 0.00 0.03 0.03 83 1020.8
20260507003032 15 32 0.0 0.0 0.00 0.03 0.03 84 1020.5
20260507002528 15 125 0.0 1.6 0.00 0.03 0.03 84 1020.8
20260507002019 15 26 3.2 4.8 0.00 0.03 0.03 83 1020.5
20260507001515 15 0 1.6 1.6 0.00 0.03 0.03 83 1020.8
20260507001013 15 4 0.0 1.6 0.00 0.03 0.03 83 1020.8
20260507000509 15 103 0.0 1.6 0.00 0.03 0.03 84 1020.5
20260507000005 15 18 3.2 4.8 0.00 0.03 0.03 83 1020.5
20260506235502 15 4 1.6 3.2 0.00 0.03 0.03 82 1020.8
20260506234958 15 124 1.6 3.2 0.00 0.03 0.03 82 1020.5
20260506234455 16 89 0.0 1.6 0.00 0.03 0.03 81 1020.5
20260506233953 16 337 0.0 0.0 0.00 0.03 0.03 81 1020.5
20260506233449 16 44 1.6 3.2 0.00 0.03 0.03 81 1020.5
20260506232945 16 1 1.6 3.2 0.00 0.03 0.03 81 1020.8
20260506232442 16 322 1.6 1.6 0.00 0.03 0.03 81 1020.5
20260506231938 16 121 3.2 4.8 0.00 0.03 0.03 80 1020.5
20260506231436 16 9 0.0 1.6 0.00 0.03 0.03 81 1020.5
20260506230933 16 41 1.6 1.6 0.00 0.03 0.03 80 1020.8
20260506230429 16 6 1.6 3.2 0.00 0.03 0.03 79 1020.8
20260506225925 16 302 1.6 1.6 0.00 0.03 0.03 79 1020.8
20260506225423 16 22 0.0 1.6 0.00 0.03 0.03 80 1020.8
20260506224920 16 1 1.6 1.6 0.00 0.03 0.03 80 1020.8
20260506224417 17 351 1.6 3.2 0.00 0.03 0.03 79 1020.8
20260506223913 17 341 1.6 3.2 0.00 0.03 0.03 79 1020.8
20260506223409 17 357 0.0 1.6 0.00 0.03 0.03 76 1020.8
20260506222906 17 2 1.6 3.2 0.00 0.03 0.03 78 1020.8
20260506222402 16 78 0.0 1.6 0.00 0.03 0.03 80 1021.2
20260506221900 16 309 3.2 4.8 0.00 0.03 0.03 79 1021.2
20260506221356 16 345 1.6 3.2 0.00 0.03 0.03 79 1021.2
20260506220854 16 345 3.2 3.2 0.00 0.03 0.03 80 1021.2
20260506220350 16 346 1.6 3.2 0.00 0.03 0.03 79 1021.2
20260506215846 17 83 1.6 3.2 0.00 0.03 0.03 79 1021.5
20260506215342 16 351 1.6 1.6 0.00 0.03 0.03 79 1021.2
20260506214838 16 4 3.2 3.2 0.00 0.03 0.03 78 1021.5
20260506214335 17 26 0.0 1.6 0.00 0.03 0.03 77 1021.5
20260506213834 17 61 0.0 1.6 0.00 0.03 0.03 79 1021.5
20260506213330 16 342 1.6 1.6 0.00 0.03 0.03 80 1021.5
20260506212828 16 2 3.2 4.8 0.00 0.03 0.03 80 1021.5
20260506212323 16 355 3.2 3.2 0.00 0.03 0.03 79 1021.9
20260506211819 16 7 1.6 1.6 0.00 0.03 0.03 79 1021.5
20260506211315 16 356 1.6 1.6 0.00 0.03 0.03 80 1021.5
20260506210813 16 353 3.2 3.2 0.00 0.03 0.03 79 1021.9
20260506210309 16 20 1.6 1.6 0.00 0.03 0.03 80 1021.5
20260506205806 17 337 1.6 1.6 0.00 0.03 0.03 78 1021.5
20260506205305 17 347 1.6 1.6 0.00 0.03 0.03 80 1021.9
20260506204758 17 5 3.2 3.2 0.00 0.03 0.03 77 1021.5
20260506204257 17 24 1.6 1.6 0.00 0.03 0.03 79 1021.5
20260506203754 18 344 3.2 3.2 0.00 0.03 0.03 75 1021.5
20260506203251 18 95 1.6 1.6 0.00 0.03 0.03 74 1021.5
20260506202748 17 328 1.6 1.6 0.00 0.03 0.03 76 1021.9
20260506202245 17 33 1.6 3.2 0.00 0.03 0.03 77 1021.9
20260506201741 17 49 0.0 0.0 0.00 0.03 0.03 78 1021.5
20260506201238 17 326 1.6 3.2 0.00 0.03 0.03 76 1021.5
20260506200735 17 51 1.6 1.6 0.00 0.03 0.03 76 1021.9
20260506200232 17 329 1.6 3.2 0.00 0.03 0.03 76 1021.5
20260506195728 17 128 1.6 1.6 0.00 0.03 0.03 75 1021.9
20260506195225 17 22 3.2 3.2 0.00 0.03 0.03 75 1021.5
20260506194722 18 105 1.6 3.2 0.00 0.03 0.03 72 1021.5
20260506194218 17 327 0.0 0.0 0.00 0.03 0.03 76 1021.5
20260506193716 17 137 3.2 3.2 0.00 0.03 0.03 76 1021.5
20260506193213 17 345 3.2 3.2 0.00 0.03 0.03 75 1021.9
20260506192710 17 358 3.2 3.2 0.00 0.03 0.03 75 1021.5
20260506192206 18 339 3.2 3.2 0.00 0.03 0.03 73 1021.5
20260506191657 17 44 0.0 1.6 0.00 0.03 0.03 74 1021.5
20260506191153 16 12 0.0 0.0 0.00 0.03 0.03 78 1021.9
20260506190650 17 336 4.8 8.0 0.00 0.03 0.03 75 1021.9
20260506190147 16 349 3.2 3.2 0.00 0.03 0.03 77 1021.9
20260506185644 16 22 6.4 8.0 0.00 0.03 0.03 77 1021.9
20260506185140 17 349 3.2 3.2 0.00 0.03 0.03 75 1021.9
20260506184638 16 358 1.6 3.2 0.00 0.03 0.03 78 1021.9
20260506184135 17 351 3.2 3.2 0.00 0.03 0.03 77 1021.9
20260506183632 16 358 1.6 1.6 0.00 0.03 0.03 78 1021.9
20260506183128 17 356 0.0 1.6 0.00 0.03 0.03 77 1021.9
20260506182626 16 355 3.2 4.8 0.00 0.03 0.03 78 1021.9
20260506182122 17 0 3.2 3.2 0.00 0.03 0.03 78 1021.9
20260506181620 17 359 0.0 1.6 0.00 0.03 0.03 77 1021.9
20260506181117 16 344 1.6 1.6 0.00 0.03 0.03 79 1021.9
20260506180614 17 20 3.2 3.2 0.00 0.03 0.03 77 1021.5
20260506180110 17 67 0.0 3.2 0.00 0.03 0.03 78 1021.5
20260506175607 17 14 1.6 1.6 0.00 0.03 0.03 78 1021.5
20260506175103 17 3 1.6 1.6 0.00 0.03 0.03 77 1021.5
20260506174602 17 328 3.2 3.2 0.00 0.03 0.03 76 1021.9
20260506174057 17 354 3.2 3.2 0.00 0.03 0.03 75 1021.5
20260506173555 17 49 0.0 0.0 0.00 0.03 0.03 76 1021.5
20260506173052 16 76 0.0 0.0 0.00 0.03 0.03 77 1021.2
20260506172550 16 75 0.0 1.6 0.00 0.03 0.03 78 1021.5
20260506172045 16 3 1.6 3.2 0.00 0.03 0.03 78 1021.5
20260506171543 16 40 1.6 1.6 0.00 0.03 0.03 78 1021.5
20260506171040 16 0 0.0 3.2 0.00 0.03 0.03 79 1021.5
20260506170537 16 343 4.8 4.8 0.00 0.03 0.03 77 1021.5
20260506170029 16 64 0.0 0.0 0.00 0.03 0.03 77 1021.5
20260506165528 16 357 3.2 3.2 0.00 0.03 0.03 77 1021.5
20260506165024 16 0 4.8 8.0 0.00 0.03 0.03 77 1021.5
20260506164521 16 12 3.2 3.2 0.00 0.03 0.03 76 1021.9
20260506164018 16 339 0.0 0.0 0.00 0.03 0.03 75 1021.5
20260506163514 16 50 0.0 0.0 0.00 0.03 0.03 75 1021.5
20260506163010 16 352 1.6 1.6 0.00 0.03 0.03 77 1021.5
20260506162506 16 5 1.6 3.2 0.00 0.03 0.03 77 1021.9
20260506162003 15 26 1.6 3.2 0.00 0.03 0.03 77 1021.9
20260506161500 15 53 0.0 0.0 0.00 0.03 0.03 78 1021.9
20260506160952 15 88 1.6 1.6 0.00 0.03 0.03 79 1021.2
20260506160450 15 60 0.0 1.6 0.00 0.03 0.03 82 1021.9
20260506155947 14 53 0.0 0.0 0.00 0.03 0.03 85 1021.5
20260506155444 14 357 0.0 0.0 0.00 0.03 0.03 87 1021.5
20260506153616 12 91 0.0 0.0 0.00 0.03 0.03 97 1021.5
20260506153114 12 22 0.0 0.0 0.00 0.03 0.03 98 1021.5
20260506152611 12 22 0.0 0.0 0.00 0.03 0.03 98 1021.5
20260506152109 12 21 0.0 0.0 0.00 0.03 0.03 99 1021.5
20260506151607 12 21 0.0 0.0 0.00 0.03 0.03 99 1021.9
20260506151103 12 3 0.0 0.0 0.00 0.03 0.03 99 1021.9
20260506150600 12 359 0.0 0.0 0.00 0.03 0.03 99 1021.5
20260506150057 12 359 0.0 0.0 0.00 0.03 0.03 99 1021.9
20260506145554 12 359 0.0 0.0 0.00 0.03 0.03 99 1021.9
20260506145051 12 359 0.0 0.0 0.00 0.03 0.03 99 1021.9
20260506144548 11 359 0.0 0.0 0.00 0.03 0.03 99 1021.9
20260506144045 11 359 0.0 0.0 0.00 0.03 0.03 99 1021.5
20260506143543 11 359 0.0 0.0 0.00 0.03 0.03 99 1021.9
20260506143041 11 359 0.0 0.0 0.00 0.03 0.03 99 1021.9
20260506142538 11 359 0.0 0.0 0.00 0.03 0.03 99 1021.9
20260506142037 11 359 0.0 0.0 0.00 0.03 0.03 99 1021.9
20260506141534 11 359 0.0 0.0 0.00 0.03 0.03 99 1021.5
20260506141032 11 359 0.0 0.0 0.00 0.03 0.03 99 1021.9
20260506140529 11 359 0.0 0.0 0.00 0.03 0.03 99 1021.5
20260506140026 11 359 0.0 0.0 0.00 0.03 0.03 99 1021.9
20260506135523 11 359 0.0 0.0 0.00 0.03 0.03 99 1021.5
20260506135019 10 359 0.0 0.0 0.00 0.03 0.03 99 1021.2
20260506134516 10 359 0.0 0.0 0.00 0.03 0.03 99 1021.5
20260506134012 10 359 0.0 0.0 0.00 0.03 0.03 99 1021.2
20260506133509 10 359 0.0 0.0 0.00 0.03 0.03 99 1021.2
20260506133006 10 359 0.0 0.0 0.00 0.03 0.03 99 1021.2
20260506132503 10 359 0.0 0.0 0.00 0.03 0.03 99 1021.5
20260506132000 10 359 0.0 0.0 0.13 0.03 0.03 99 1021.2
20260506131457 10 359 0.0 0.0 0.13 0.03 0.03 99 1021.2
20260506130954 10 359 0.0 0.0 0.00 0.00 0.00 99 1021.2
20260506130450 10 359 0.0 0.0 0.00 0.00 0.00 99 1021.2
20260506125948 10 359 0.0 0.0 0.00 0.00 0.00 99 1021.2
20260506125446 10 359 0.0 0.0 0.00 0.00 0.00 99 1021.2
20260506124944 10 359 0.0 0.0 0.00 0.00 0.00 99 1021.2
20260506124441 10 359 0.0 0.0 0.00 0.00 0.00 99 1020.8
20260506123939 10 359 0.0 0.0 0.00 0.00 0.00 99 1020.8
20260506123437 10 359 0.0 0.0 0.00 0.00 0.00 99 1021.2
20260506122934 10 359 0.0 0.0 0.00 0.00 0.00 99 1020.8
20260506122431 10 359 0.0 0.0 0.00 0.00 0.00 99 1021.2
20260506121929 10 359 0.0 0.0 0.00 0.00 0.00 99 1020.8
20260506121426 10 359 0.0 0.0 0.00 0.00 0.00 99 1020.8
20260506120923 10 359 0.0 0.0 0.00 0.00 0.00 99 1020.8
20260506120420 10 359 0.0 0.0 0.00 0.00 0.00 99 1020.8
20260506115917 10 359 0.0 0.0 0.00 0.00 0.00 99 1020.8
20260506115415 10 359 0.0 0.0 0.00 0.00 0.00 98 1020.5
20260506114914 10 359 0.0 0.0 0.00 0.00 0.00 98 1020.5
20260506114411 10 359 0.0 0.0 0.00 0.00 0.00 98 1020.5
20260506113910 10 359 0.0 0.0 0.00 0.00 0.00 98 1020.5
20260506113407 10 359 0.0 0.0 0.00 0.00 0.00 98 1020.5
20260506112903 10 359 0.0 0.0 0.00 0.00 0.00 98 1020.8
20260506112401 10 359 0.0 0.0 0.00 0.00 0.00 98 1020.5
20260506111858 10 359 0.0 0.0 0.00 0.00 0.00 98 1020.8
20260506111356 10 359 0.0 0.0 0.00 0.00 0.00 98 1020.8
20260506110853 10 359 0.0 0.0 0.00 0.00 0.00 98 1020.5
20260506110350 10 359 0.0 0.0 0.00 0.00 0.00 98 1020.5
20260506105847 10 359 0.0 0.0 0.00 0.00 0.00 98 1020.8
20260506105343 10 359 0.0 0.0 0.00 0.00 0.00 98 1020.5
20260506104841 10 359 0.0 0.0 0.00 0.00 0.00 98 1020.5
20260506104338 10 359 0.0 0.0 0.00 0.00 0.00 98 1020.5
20260506103836 10 359 0.0 0.0 0.00 0.00 0.00 98 1020.5
20260506103333 10 359 0.0 0.0 0.00 0.00 0.00 98 1020.5
20260506102831 10 359 0.0 0.0 0.00 0.00 0.00 98 1020.8
20260506102328 10 359 0.0 0.0 0.00 0.00 0.00 98 1020.5
20260506101825 10 359 0.0 0.0 0.00 0.00 0.00 98 1020.8
20260506101321 11 359 0.0 0.0 0.00 0.00 0.00 98 1020.8
20260506100820 11 359 0.0 0.0 0.00 0.00 0.00 98 1020.8
20260506100318 11 359 0.0 0.0 0.00 0.00 0.00 98 1020.5
20260506095816 11 359 0.0 0.0 0.00 0.00 0.00 98 1020.8
20260506095312 11 359 0.0 0.0 0.00 0.00 0.00 98 1020.8
20260506094809 11 359 0.0 0.0 0.00 0.00 0.00 98 1020.8
20260506094308 11 29 0.0 0.0 0.00 0.00 0.00 98 1020.8
20260506093806 11 29 0.0 0.0 0.00 0.00 0.00 98 1020.8
20260506093302 11 29 0.0 0.0 0.00 0.00 0.00 97 1020.8
20260506092801 11 29 0.0 0.0 0.00 0.00 0.00 97 1020.8
20260506092258 11 29 0.0 0.0 0.00 0.00 0.00 97 1020.8
20260506091755 11 29 0.0 0.0 0.00 0.00 0.00 97 1020.8
20260506091252 11 29 0.0 0.0 0.00 0.00 0.00 97 1020.5
20260506090750 11 29 0.0 0.0 0.00 0.00 0.00 97 1020.8
20260506090247 11 29 0.0 0.0 0.00 0.00 0.00 97 1020.5
20260506085744 11 29 0.0 0.0 0.00 0.00 0.00 97 1020.8
20260506085240 10 29 0.0 0.0 0.00 0.00 0.00 97 1020.8
20260506084736 11 29 0.0 0.0 0.00 0.00 0.00 97 1020.5
20260506084232 11 29 0.0 0.0 0.00 0.00 0.00 97 1020.5
20260506083730 11 29 0.0 0.0 0.00 0.00 0.00 97 1020.5
20260506083222 10 29 0.0 0.0 0.00 0.00 0.00 96 1020.8
20260506082719 11 29 0.0 0.0 0.00 0.00 0.00 96 1020.5
20260506082215 11 29 0.0 0.0 0.00 0.00 0.00 96 1020.5
20260506081713 11 29 0.0 0.0 0.00 0.00 0.00 96 1020.8
20260506081210 11 29 0.0 0.0 0.00 0.00 0.00 96 1020.2
20260506080708 10 29 0.0 0.0 0.00 0.00 0.00 96 1020.8
20260506080204 11 29 0.0 0.0 0.00 0.00 0.00 96 1020.5
20260506073148 11 29 0.0 0.0 0.00 0.00 0.00 94 1020.5
20260506072644 11 29 0.0 0.0 0.00 0.00 0.00 94 1020.5
20260506072143 11 29 0.0 0.0 0.00 0.00 0.00 94 1020.2
20260506071640 11 29 0.0 0.0 0.00 0.00 0.00 94 1020.5
20260506071137 11 29 0.0 0.0 0.00 0.00 0.00 94 1020.5
20260506070634 11 29 0.0 0.0 0.00 0.00 0.00 93 1020.5
20260506070131 11 29 0.0 0.0 0.00 0.00 0.00 93 1020.2
20260506062109 12 29 0.0 0.0 0.00 0.00 0.00 91 1020.2
20260506061604 12 29 0.0 0.0 0.00 0.00 0.00 91 1020.2
20260506061102 12 29 0.0 0.0 0.00 0.00 0.00 91 1020.2
20260506060601 13 29 0.0 0.0 0.00 0.00 0.00 91 1020.2
20260506051029 13 29 0.0 0.0 0.00 0.00 0.00 88 1019.8
20260506050527 13 29 0.0 0.0 0.00 0.00 0.00 88 1019.8
20260506045018 13 29 0.0 0.0 0.00 0.00 0.00 88 1019.5
20260506044516 13 29 0.0 0.0 0.00 0.00 0.00 88 1019.8
20260506044012 13 29 0.0 0.0 0.00 0.00 0.00 88 1019.8
20260506043509 13 29 0.0 0.0 0.00 0.00 0.00 88 1019.5
20260506043008 13 29 0.0 0.0 0.00 0.00 0.00 88 1019.5
20260506042506 13 29 0.0 0.0 0.00 0.00 0.00 88 1019.5
20260506042004 13 29 0.0 0.0 0.00 0.00 0.00 88 1019.5
20260506041502 13 29 0.0 0.0 0.00 0.00 0.00 88 1019.5